Location: ????????
(56.1167°N, 38.6333°E)
Time: 10:58:45
(UTC+00:00)

Cosmos 1862 - Pass Details

Date: 18 November 2025
Orbit: 473 x 485 km, 82.5° (Epoch: 09 December)

Event Time Altitude Azimuth Distance (km) Brightness Sun altitude
Rises 14:39:44 0° 353° (N) 2,544 6.6 -11.8°
Reaches altitude 10° 14:41:58 10° 2° (N) 1,663 5.6 -12.1°
Maximum altitude 14:45:19 34° 69° (ENE) 810 3.6 -12.5°
Drops below altitude 10° 14:48:39 10° 137° (SE) 1,657 5.5 -13.0°
Sets 14:50:53 0° 146° (SSE) 2,535 6.5 -13.3°
